User: anonymous   Login
Location: McDonald Observatory
(30.6717°N, 104.0221°W)
Time: 02:25:27
(UTC-06:00)
Language:

Cosmos 1484 Rocket - Orbit

View from above orbital plane
View from above orbital plane
View from above satellite
View from above satellite

Ground track
Ground track

The orbit data is extracted from the following two-line orbital elements,

1 14208U 83075B   17022.87496445  .00000347  00000-0  24762-4 0  9996
2 14208  97.3452  39.3886 0037900 272.6857  87.0035 15.10241315825573
Epoch (UTC): 22 January 2017 20:59:56
Eccentricity: 0.0037900
inclination: 97.3452°
perigee height: 509 km
apogee height: 561 km
right ascension of ascending node: 39.3886°
argument of perigee: 272.6857°
revolutions per day: 15.10241315
mean anomaly at epoch: 87.0035°
orbit number at epoch: 82557

The dashed part of the orbit path shows where the satellite is in the earth's shadow,  

DLR